[[{"header":{"parameterUnit":"m.s-1","parameterCategory":1,"la1":30.2991,"la2":30.254,"lo1":-89.0895,"lo2":-89.0444,"dx":0.0017,"dy":0.0017,"nx":28,"ny":28,"refTime":"2022-12-13T09:00:00:Z","depth":0,"parameterNumber":2,"parameterNumberName":"U-component_of_WINDS"},"data":[0,0,0,0,0,0,0,0,0,0,0,0,0,0,0,0,0,0,0,0,0,0,0,0,0,0,0,0,0,0,0,0,0,0,0,0,0,0,0,0,0,0,0,0,0,0,0,0,0,0,0,0,0,0,0,0,0,0,-3.0468,-3.0468,0,-3.048,-3.048,-3.048,-3.0414,-3.0412,-3.041,-3.0409,-3.042,-3.0422,-3.0424,0,0,0,0,0,0,0,0,0,0,0,0,0,-3.0389,-3.039,-3.0468,-3.0468,-3.0468,-3.048,-3.048,-3.048,-3.0415,-3.0412,-3.041,-3.0408,-3.0419,-3.0422,-3.0424,0,0,0,0,0,0,0,0,0,0,0,0,0,-3.0414,-3.0391,-3.0468,-3.0437,-3.0434,-3.048,-3.048,-3.048,-3.0415,-3.0412,-3.0409,-3.0407,-3.0418,-3.0421,-3.0425,-3.05,0,0,-3.0434,-3.0435,0,0,0,0,0,0,0,0,-3.0413,-3.0417,-3.0441,-3.0439,-3.0436,-3.0443,-3.0456,-3.0487,-3.0416,-3.0422,-3.0409,-3.0405,-3.043,-3.0432,-3.044,-3.0501,-3.0501,-3.0434,-3.0436,-3.0437,-3.0438,0,0,0,0,0,0,0,-3.0411,-3.0416,-3.0472,-3.0442,-3.0439,-3.0423,-3.0423,-3.0462,-3.0442,-3.0421,-3.0417,-3.0419,-3.0428,-3.0437,-3.044,-3.0501,-3.0434,-3.0437,-3.0439,-3.044,-3.0627,-3.063,0,0,0,0,0,0,-3.0413,-3.0415,-3.0472,-3.0473,-3.0417,-3.0426,-3.0427,-3.0443,-3.0441,-3.0438,-3.0422,-3.0416,-3.0433,-3.0436,-3.044,-3.0529,-3.0437,-3.044,-3.0442,-3.0624,-3.0628,-3.0631,0,0,0,0,0,0,-3.0412,-3.0419,-3.0472,-3.0443,-3.0448,-3.0431,-3.045,-3.0445,-3.0454,-3.0441,-3.0437,-3.0435,-3.0431,-3.0436,-3.0486,-3.0529,-3.0442,-3.0444,-3.062,-3.0625,-3.0629,-3.0708,0,0,0,0,0,0,-3.041,-3.0419,-3.0447,-3.0444,-3.045,-3.0517,-3.0452,-3.0447,-3.046,-3.0453,-3.0453,-3.045,-3.0429,-3.0482,-3.0489,-3.0531,-3.0447,-3.0616,-3.0622,-3.0628,-3.0701,-3.0715,-3.0726,0,0,0,0,0,-3.0407,-3.0468,-3.0449,-3.0456,-3.0485,-3.052,-3.0523,-3.0499,-3.0464,-3.0492,-3.0484,-3.045,-3.0524,-3.0488,-3.0495,-3.0539,-3.0613,-3.0621,-3.0627,-3.0696,-3.0712,-3.0726,0,0,0,0,0,0,-3.0475,-3.0467,-3.0445,-3.0507,-3.0515,-3.0509,-3.0543,-3.0517,-3.0534,-3.0527,-3.0496,-3.0496,-3.0552,-3.0551,-3.0511,-3.0613,-3.0562,-3.0571,-3.0612,-3.0627,-3.0639,-3.0638,-3.0449,0,0,0,0,0,-3.0497,-3.0527,-3.0518,-3.0573,-3.0578,-3.0561,-3.0575,-3.0556,-3.0563,-3.0565,-3.0561,-3.0569,-3.0594,-3.0611,-3.0633,-3.0702,-3.0701,-3.0736,-3.0748,-3.0759,-3.0766,-3.0804,-3.0819,-3.0654,-3.0654,-3.0654,0,0,-3.0543,-3.0542,-3.0562,-3.0587,-3.059,-3.0622,-3.0564,-3.0599,-3.0622,-3.057,-3.0618,-3.0616,-3.0623,-3.0683,-3.071,-3.0684,-3.0812,-3.0768,-3.0776,-3.0778,-3.0813,-3.0828,-3.0842,-3.0659,-3.0658,-3.0657,0,0,-3.0642,-3.0645,-3.0691,-3.0697,-3.0705,-3.0693,-3.0705,-3.0704,-3.07,-3.0748,-3.0711,-3.0739,-3.0782,-3.0789,-3.0798,-3.0905,-3.0874,-3.0913,-3.0976,-3.1014,-3.1027,-3.1038,-3.1076,-3.109,-3.0921,-3.0921,-3.0921,0,-3.0697,-3.0743,-3.0718,-3.0757,-3.0769,-3.0726,-3.0774,-3.0781,-3.0795,-3.0805,-3.0776,-3.0831,-3.0833,-3.0895,-3.0922,-3.0931,-3.0943,-3.0911,-3.1027,-3.1038,-3.1049,-3.1085,-3.1099,-3.0926,-3.0925,-3.0925,-3.0924,0,-3.0811,-3.0844,-3.0881,-3.0897,-3.0914,-3.0957,-3.0939,-3.096,-3.0941,-3.0933,-3.0983,-3.0984,-3.1006,-3.102,-3.1001,-3.1081,-3.1065,-3.1032,-3.098,-3.1069,-3.1103,-3.1116,-3.0932,-3.0931,-3.0929,-3.0928,0,0,-3.0949,-3.0954,-3.0968,-3.0976,-3.0983,-3.1008,-3.105,-3.1073,-3.1091,-3.1104,-3.1139,-3.1179,-3.1149,-3.116,-3.1142,-3.1175,-3.126,-3.1139,-3.1138,-3.1161,-3.1349,-3.1373,-3.1389,-3.1241,-3.1244,-3.1246,-3.1349,0,-3.1046,-3.1118,-3.1099,-3.117,-3.1201,-3.1163,-3.12,-3.1209,-3.1204,-3.1229,-3.1223,-3.1252,-3.1211,-3.1218,-3.1249,-3.1243,-3.1298,-3.1236,-3.1273,-3.1275,-3.1271,-3.1406,-3.143,-3.1527,-3.1361,-3.1364,-3.1365,0,-3.1167,-3.1186,-3.1262,-3.1266,-3.1278,-3.1312,-3.1333,-3.1358,-3.1368,-3.1362,-3.1376,-3.1352,-3.1395,-3.1345,-3.1403,-3.1362,-3.1376,-3.1377,-3.138,-3.1381,-3.1324,-3.141,-3.1557,-3.1571,-3.1385,-3.1384,-3.1382,0,-3.126,-3.1305,-3.1356,-3.1364,-3.137,-3.1395,-3.1399,-3.1407,-3.1423,-3.1442,-3.1452,-3.1475,-3.1488,-3.1507,-3.1491,-3.1456,-3.1552,-3.15,-3.1548,-3.1549,-3.1568,-3.1567,-3.1719,-3.1581,-3.158,-3.158,-3.158,0,-3.1369,-3.1416,-3.1398,-3.1429,-3.1482,-3.1461,-3.1514,-3.1513,-3.1521,-3.1552,-3.1522,-3.1551,-3.1529,-3.1557,-3.1545,-3.1596,-3.1602,-3.1598,-3.1594,-3.16,-3.1601,-3.1608,-3.16,-3.1584,-3.1583,-3.1582,-3.1582,0,-3.148,-3.147,-3.1523,-3.1527,-3.1529,-3.1567,-3.157,-3.16,-3.1594,-3.1634,-3.1642,-3.1633,-3.1665,-3.1652,-3.1685,-3.1677,-3.1742,-3.173,-3.1739,-3.1735,-3.1784,-3.1779,-3.1944,-3.1965,-3.1815,-3.1816,-3.1817,0,-3.1549,-3.1585,-3.1594,-3.1613,-3.1619,-3.165,-3.1667,-3.1649,-3.1668,-3.1685,-3.1713,-3.1743,-3.1765,-3.1819,-3.1815,-3.1841,-3.1828,-3.1885,-3.1832,-3.1837,-3.1828,-3.1826,-3.183,-3.1894,-3.1896,-3.1897,-3.1899,0,-3.1673,-3.1667,-3.1693,-3.1719,-3.174,-3.1759,-3.1775,-3.1793,-3.1776,-3.1799,-3.1832,-3.185,-3.1886,-3.1916,-3.194,-3.1944,-3.1919,-3.1916,-3.1928,-3.1934,-3.1937,-3.1936,-3.1766,-3.1911,-3.191,-3.1909,-3.1909,-3.1908,-3.1765,-3.1796,-3.1807,-3.1838,-3.1849,-3.1866,-3.1894,-3.1893,-3.1921,-3.1949,-3.1937,-3.1976,-3.1988,-3.2018,-3.2026,-3.2057,-3.2034,-3.2052,-3.2057,-3.2061,-3.2067,-3.1935,-3.2061,-3.2061,-3.206,-3.206,-3.206,0,-3.1886,-3.1893,-3.1922,-3.1947,-3.1971,-3.1948,-3.1965,-3.1988,-3.2022,-3.2036,-3.206,-3.21,-3.213,-3.213,-3.2158,-3.2183,-3.2172,-3.2191,-3.2188,-3.2189,-3.2086,-3.2072,-3.2199,-3.2199,-3.2199,-3.2199,-3.2199,-3.2199,-3.1952,-3.2004,-3.2,-3.2058,-3.2064,-3.2102,-3.2115,-3.213,-3.2142,-3.2187,-3.2213,-3.2214,-3.2223,-3.2252,-3.2279,-3.2278,-3.229,-3.2313,-3.2308,-3.221,-3.2196,-3.2183,-3.217,-3.2316,-3.2316,-3.2409,-3.241,-3.241]},{"header":{"parameterUnit":"m.s-1","parameterCategory":1,"la1":30.2991,"la2":30.254,"lo1":-89.0895,"lo2":-89.0444,"dx":0.0017,"dy":0.0017,"nx":28,"ny":28,"refTime":"2022-12-13T09:00:00:Z","depth":0,"parameterNumber":3,"parameterNumberName":"V-component_of_WINDS"},"data":[0,0,0,0,0,0,0,0,0,0,0,0,0,0,0,0,0,0,0,0,0,0,0,0,0,0,0,0,0,0,0,0,0,0,0,0,0,0,0,0,0,0,0,0,0,0,0,0,0,0,0,0,0,0,0,0,0,0,-1.2714,-1.2714,0,-1.2742,-1.2742,-1.2742,-1.276,-1.276,-1.276,-1.276,-1.2786,-1.2787,-1.2788,0,0,0,0,0,0,0,0,0,0,0,0,0,-1.2673,-1.2674,-1.2714,-1.2714,-1.2715,-1.2742,-1.2742,-1.2742,-1.276,-1.276,-1.276,-1.276,-1.2786,-1.2787,-1.2788,0,0,0,0,0,0,0,0,0,0,0,0,0,-1.2695,-1.2674,-1.2714,-1.2727,-1.2728,-1.2742,-1.2742,-1.2742,-1.276,-1.276,-1.276,-1.276,-1.2786,-1.2787,-1.2788,-1.279,0,0,-1.279,-1.2791,0,0,0,0,0,0,0,0,-1.2694,-1.2696,-1.2725,-1.2726,-1.2728,-1.2748,-1.2737,-1.2758,-1.276,-1.2748,-1.276,-1.2761,-1.2773,-1.2775,-1.278,-1.2791,-1.2792,-1.2791,-1.2791,-1.2791,-1.2792,0,0,0,0,0,0,0,-1.2692,-1.2695,-1.2725,-1.2725,-1.2727,-1.273,-1.2733,-1.2741,-1.2759,-1.2749,-1.275,-1.2753,-1.2774,-1.2779,-1.2781,-1.2793,-1.2791,-1.2791,-1.2792,-1.2792,-1.2805,-1.2805,0,0,0,0,0,0,-1.2689,-1.2694,-1.2724,-1.2726,-1.2711,-1.2731,-1.2734,-1.2741,-1.2759,-1.2762,-1.2753,-1.2754,-1.2777,-1.278,-1.2782,-1.2785,-1.2791,-1.2792,-1.2793,-1.2805,-1.2805,-1.2805,0,0,0,0,0,0,-1.2688,-1.2692,-1.2723,-1.271,-1.2715,-1.2731,-1.2739,-1.2741,-1.2747,-1.2763,-1.2765,-1.2755,-1.2778,-1.278,-1.2788,-1.2786,-1.2793,-1.2793,-1.2806,-1.2805,-1.2805,-1.2791,0,0,0,0,0,0,-1.2687,-1.2691,-1.2693,-1.271,-1.2715,-1.2729,-1.2738,-1.2742,-1.2748,-1.275,-1.2765,-1.2768,-1.2778,-1.2786,-1.2788,-1.2787,-1.2794,-1.2806,-1.2805,-1.2805,-1.2792,-1.279,-1.2789,0,0,0,0,0,-1.2685,-1.2688,-1.2693,-1.2697,-1.2718,-1.2729,-1.2732,-1.2744,-1.2748,-1.2749,-1.2759,-1.2767,-1.2786,-1.2787,-1.2789,-1.2788,-1.2806,-1.2806,-1.2805,-1.2792,-1.279,-1.2789,0,0,0,0,0,0,-1.267,-1.269,-1.2696,-1.2705,-1.2715,-1.2732,-1.2734,-1.2742,-1.2751,-1.2752,-1.2766,-1.2769,-1.2775,-1.2782,-1.2783,-1.2791,-1.2797,-1.2797,-1.2786,-1.2784,-1.2783,-1.2781,-1.2795,0,0,0,0,0,-1.2667,-1.2675,-1.2693,-1.2698,-1.2703,-1.2718,-1.2723,-1.2731,-1.2743,-1.2747,-1.2758,-1.2767,-1.2775,-1.278,-1.2788,-1.2792,-1.2796,-1.2793,-1.2792,-1.279,-1.279,-1.2792,-1.2791,-1.2804,-1.2804,-1.2804,0,0,-1.2662,-1.2674,-1.2679,-1.2695,-1.2704,-1.2711,-1.2721,-1.2729,-1.2734,-1.2748,-1.2755,-1.2763,-1.2775,-1.278,-1.2783,-1.2787,-1.2788,-1.279,-1.2789,-1.279,-1.2792,-1.279,-1.2789,-1.2803,-1.2803,-1.2803,0,0,-1.2656,-1.2667,-1.2672,-1.2681,-1.2694,-1.2704,-1.2705,-1.2721,-1.2727,-1.2735,-1.2745,-1.275,-1.2764,-1.2772,-1.2777,-1.2773,-1.278,-1.2775,-1.2768,-1.277,-1.2769,-1.2768,-1.2766,-1.2765,-1.2775,-1.2775,-1.2775,0,-1.2648,-1.266,-1.2674,-1.268,-1.2687,-1.27,-1.2704,-1.2712,-1.2727,-1.2731,-1.2735,-1.2751,-1.276,-1.2767,-1.2766,-1.277,-1.2771,-1.2773,-1.2768,-1.2767,-1.2767,-1.2765,-1.2764,-1.2774,-1.2774,-1.2774,-1.2774,0,-1.2649,-1.2657,-1.266,-1.2674,-1.2681,-1.2687,-1.27,-1.2704,-1.2712,-1.272,-1.2727,-1.2738,-1.2748,-1.2751,-1.2758,-1.2758,-1.276,-1.2765,-1.2772,-1.2764,-1.2763,-1.2762,-1.2773,-1.2773,-1.2773,-1.2774,0,0,-1.2636,-1.2657,-1.2657,-1.2664,-1.2679,-1.2685,-1.269,-1.2701,-1.2704,-1.2714,-1.2718,-1.2729,-1.2734,-1.274,-1.2748,-1.2749,-1.2744,-1.2755,-1.2755,-1.2752,-1.2744,-1.274,-1.2739,-1.2749,-1.2749,-1.2749,-1.2743,0,-1.2632,-1.2644,-1.2655,-1.2662,-1.2669,-1.268,-1.2685,-1.2694,-1.2702,-1.2708,-1.2716,-1.2723,-1.273,-1.2734,-1.2735,-1.2744,-1.2743,-1.2745,-1.2752,-1.2752,-1.2749,-1.2738,-1.2734,-1.2728,-1.2742,-1.2742,-1.2742,0,-1.263,-1.2639,-1.2647,-1.2661,-1.2664,-1.2668,-1.2678,-1.2684,-1.2694,-1.2699,-1.2705,-1.2714,-1.2719,-1.2724,-1.2731,-1.2732,-1.2735,-1.274,-1.274,-1.2741,-1.2747,-1.2739,-1.2727,-1.2726,-1.2742,-1.2742,-1.2742,0,-1.2619,-1.2633,-1.2639,-1.2644,-1.266,-1.2663,-1.2669,-1.268,-1.2685,-1.2693,-1.2696,-1.2704,-1.2709,-1.2714,-1.2724,-1.2727,-1.2729,-1.2736,-1.2733,-1.2733,-1.2734,-1.2734,-1.2722,-1.2736,-1.2736,-1.2736,-1.2736,0,-1.2614,-1.2618,-1.2634,-1.2638,-1.2643,-1.2655,-1.2659,-1.2666,-1.2675,-1.2679,-1.269,-1.2694,-1.2706,-1.2711,-1.2719,-1.2723,-1.2725,-1.2729,-1.2731,-1.2728,-1.2727,-1.2731,-1.2731,-1.2736,-1.2736,-1.2736,-1.2736,0,-1.2603,-1.2614,-1.2621,-1.2635,-1.2639,-1.2642,-1.2653,-1.2657,-1.2665,-1.267,-1.2672,-1.2684,-1.2691,-1.2701,-1.2711,-1.2715,-1.2718,-1.2721,-1.2715,-1.2716,-1.2713,-1.2713,-1.2703,-1.2702,-1.2716,-1.2716,-1.2716,0,-1.2599,-1.2603,-1.2617,-1.2621,-1.2627,-1.2633,-1.2638,-1.265,-1.2654,-1.2665,-1.2667,-1.2674,-1.2681,-1.269,-1.27,-1.2706,-1.271,-1.2706,-1.2711,-1.2708,-1.271,-1.2709,-1.2709,-1.2705,-1.2705,-1.2704,-1.2704,0,-1.2591,-1.2596,-1.2603,-1.2612,-1.2618,-1.2625,-1.2633,-1.2635,-1.2648,-1.2652,-1.2659,-1.2664,-1.2674,-1.268,-1.2688,-1.2694,-1.2701,-1.2702,-1.2702,-1.2699,-1.2695,-1.2697,-1.2711,-1.2703,-1.2703,-1.2703,-1.2703,-1.2703,-1.2584,-1.2587,-1.2597,-1.2604,-1.2611,-1.2618,-1.2621,-1.2629,-1.2635,-1.2644,-1.265,-1.2656,-1.2665,-1.2676,-1.2681,-1.2686,-1.2689,-1.2689,-1.2689,-1.2688,-1.2687,-1.2694,-1.2687,-1.2687,-1.2687,-1.2687,-1.2687,0,-1.2576,-1.2583,-1.2589,-1.26,-1.2605,-1.2611,-1.2619,-1.2623,-1.2629,-1.2636,-1.2642,-1.2649,-1.2655,-1.2664,-1.2671,-1.2673,-1.2676,-1.2674,-1.2674,-1.2675,-1.2684,-1.2684,-1.2671,-1.2671,-1.2671,-1.2671,-1.2671,-1.2671,-1.2573,-1.2578,-1.2584,-1.2592,-1.2599,-1.2605,-1.2609,-1.2615,-1.2621,-1.2628,-1.2634,-1.264,-1.2647,-1.2654,-1.266,-1.2662,-1.2664,-1.2661,-1.2665,-1.2673,-1.2675,-1.2676,-1.2676,-1.2662,-1.2662,-1.2655,-1.2655,-1.2655]}]]